Notices

What's New in latest Release from April 7th, 2021:

- Updated Glossary, including Speed of Maximum Gust, and Total Hourly Precipitation

- Updated national and regional climate services offices contacts and prices information

- Addition of station inventory lists for 1981-2010, 1971-2000, and 1961-1990 Normals.

If you haven't already, please take our survey and provide feedback about our website: https://eccc.sondage-survey.ca/f/LanguageSelection.aspx?s=442ca660-fcf1-47c0-95a9-59707d6fd709

Hourly Data Report for December 21, 2019

SAINT JOHN A
NEW BRUNSWICK
Current Station Operator: NAVCAN

45°18'58.000" N
65°53'24.000" W
108.80 m
8104901
71609
YSJ

Download Data

Hourly Data (December 2019)
Hourly Data Report for December 21, 2019
TIME
LST
Temp Definition
°C
Dew Point Definition
°C
Rel Hum Definition
%
Precip. Amount Definition
mm

Wind Dir Definition
10's deg

Wind Spd Definition
km/h
Visibility Definition
km
Stn Press Definition
kPa
Hmdx Definition


Wind Chill Definition


Weather Definition


00:00 -5.8 -8.4 82   34 11 24.1 101.70   -11 LegendNANA
01:00 -6.4 -8.3 86   32 8 24.1 101.73   -10 LegendNANA
02:00 -7.8 -9.0 91   32 12 24.1 101.80   -13 Clear
03:00 -8.3 -9.7 90   34 8 24.1 101.85   -12 LegendNANA
04:00 -7.9 -9.4 89   32 12 24.1 101.87   -13 LegendNANA
05:00 -7.7 -9.6 87   35 13 24.1 101.86   -13 Clear
06:00 -7.6 -9.5 86   34 23 24.1 101.87   -15 LegendNANA
07:00 -7.7 -9.6 86   33 29 24.1 101.90   -16 LegendNANA
08:00 -7.5 -9.3 86   34 30 24.1 101.89   -16 Clear
09:00 -6.8 -9.0 84   35 26 24.1 101.94   -15 LegendNANA
10:00 -5.6 -8.3 81   34 16 24.1 101.99   -12 LegendNANA
11:00 -4.1 -7.8 76   1 14 24.1 102.01   -9 Clear
12:00 -3.2 -8.0 69   33 19 24.1 101.91   -9 LegendNANA
13:00 -2.5 -8.6 63   34 15 24.1 101.84   -7 LegendNANA
14:00 -1.7 -8.6 60   35 11 24.1 101.80   -6 Mainly Clear
15:00 -1.2 -8.4 58   34 7 24.1 101.76   -4 LegendNANA
16:00 -1.4 -8.4 59   30 12 24.1 101.77   -5 LegendNANA
17:00 -5.1 -9.5 71   32 4 24.1 101.76   -7 Mostly Cloudy
18:00 -6.3 -8.4 85   36 4 24.1 101.74   -8 LegendNANA
19:00 -7.5 -9.0 89   36 2 24.1 101.75   -9 LegendNANA
20:00 -9.2 -10.4 91   5 4 24.1 101.76   -11 Mostly Cloudy
21:00 -9.0 -10.2 91   29 3 24.1 101.73   -11 LegendNANA
22:00 -10.3 -11.6 91   20 4 24.1 101.71   -13 LegendNANA
23:00 -11.4 -12.5 92   1 4 24.1 101.71   -14 Mainly Clear

Notes on Data Quality.

Legend

  • E = Estimated
  • M = Missing
  • NA = Not Available*
  • [empty] = Indicates an unobserved value
Date modified: